Regional Weather Roundup
Issued by NWS Grand Forks, ND

Home | Current Version | Previous Version | Graphics & Text | Print | Product List | Glossary On
Versions: 1 2 3 4 5 6 7 8 9 10 11 12 13 14 15 16 17 18 19 20 21 22 23 24 25 26 27 28 29 30 31 32 33 34 35 36 37 38 39 40 41 42 43 44 45 46 47 48 49 50
073
ASUS43 KFGF 201431
RWRFGF
PRAIRIE TO PINES  WEATHER ROUNDUP
NATIONAL WEATHER SERVICE EASTERN NORTH DAKOTA/GRAND FORKS ND
900 AM CDT FRI APR 20 2018

 **SATELLITE DATA USED TO AUGMENT SKY COVER AT AUTOMATED STATIONS**
 *****  WEATHER ACROSS EASTERN NORTH DAKOTA  *****

CITY           SKY/WX    TMP DP  RH WIND       PRES   REMARKS
GRAND FORKS    FAIR      39  33  79 S7        30.41R
GRAND FRKS AFB FAIR      44  32  63 CALM      30.40R
GRAND FRKS NWS   N/A     43  32  64 S5        30.39R
DEVILS LAKE    FAIR      38  31  76 SE6       30.39R
FARGO          FAIR      41  32  70 S8        30.44R
WAHPETON ARPT  FAIR      39  32  75 SE8       30.46R
$$

 ***** WEATHER ACROSS CENTRAL AND WESTERN NORTH DAKOTA  *****

CITY           SKY/WX    TMP DP  RH WIND       PRES   REMARKS
BISMARCK       FAIR      38  28  67 SE8       30.33S
MINOT          FAIR      39  30  70 SE8       30.30S
JAMESTOWN      FAIR      38  29  70 S12       30.38R
MINOT AFB      FAIR      38  33  83 SE7       30.29S
GARRISON         N/A     35  29  78 E9        30.29S
WILLISTON      FAIR      39  31  72 NE6       30.23S
DICKINSON      FAIR      37  30  75 SE14      30.20S
HETTINGER      FAIR      34  28  79 SE12      30.22S
$$

 *****  OTHER AIRPORT OBSERVATIONS IN OUR AREA  *****

CITY           SKY/WX    TMP DP  RH WIND       PRES   REMARKS
WALHALLA       FAIR      45  36  70 CALM      30.38R
GRAFTON AIRPOR FAIR      41  34  75 S7        30.42S
VALLEY CITY AR FAIR      37  32  81 SW12      30.42S
CANDO          FAIR      39  39 100 SE5       30.39S
CAVALIER APRT    N/A     43  36  75 S8        30.39R
GWINNER          N/A     39  28  65 CALM      30.43R
SHEYENNE NWR     N/A     39  34  81 S5        29.95S
ROLLA          FAIR      37  37 100 S6        30.36R
 ***** THE ABOVE OBSERVATIONS ARE NON NWS ARE NOT QUALITY
       CONTROLLED AND MAY MIS-REPORT RAIN FOR SNOW...
$$

  *****  WEATHER ACROSS NORTHERN MINNESOTA  *****

CITY           SKY/WX    TMP DP  RH WIND       PRES   REMARKS
FLAG ISLAND    FAIR      36  27  69 SE5       30.40S
WARROAD        FAIR      45  34  65 CALM      30.42S
ROSEAU         FAIR      43  34  70 S5        30.41S
HALLOCK        FAIR      43  37  81 S5        30.40S
THF RVR FALLS  FAIR      39  32  76 S6        30.43R
BAUDETTE       FAIR      39  29  67 S5        30.42R
WASKISH        PTSUNNY   46  30  53 W3        30.43S
CROOKSTON      FAIR      41  34  75 S6        30.44R
STEPHEN NDAWN    N/A     39  34  81 S7          N/A
GREENBUSH NDAW   N/A     37  34  87 S3          N/A
$$
  *****  WEATHER ACROSS CENTRAL AND WEST MINNESOTA  *****

CITY           SKY/WX    TMP DP  RH WIND       PRES   REMARKS
FOSSTON        FAIR      43  28  56 S6        30.43S
BEMIDJI        FAIR      42  29  59 W3        30.43S
PARK RAPIDS    FAIR      39  30  70 S5        30.44R
ELBOW LAKE     FAIR      39  30  70 SE8       30.46R
WADENA         FAIR      39  30  70 CALM      30.44F
DETROIT LAKES  FAIR      43  32  65 CALM      30.44S
MOORHEAD       FAIR      39  32  75 S6        30.45S
FERGUS FALLS   FAIR      41  30  65 S7        30.44R
MORRIS MN      FAIR      36  27  69 SE8       30.45S
STAPLES        FAIR      41  27  56 CALM      30.45F
$$
  *****  WEATHER ELSEWHERE ACROSS MINNESOTA  *****

CITY           SKY/WX    TMP DP  RH WIND       PRES   REMARKS
DULUTH         FAIR      45  29  53 W5        30.44R
INTRNTL FALLS  FAIR      40  27  59 CALM      30.42R
ELY            FAIR      39  18  41 CALM      30.43R
CLOQUET        FAIR      46  27  46 CALM      30.44S
WHEATON        FAIR      37  30  75 SE7       30.48R
BRAINERD       FAIR      40  25  55 SW5       30.47R
HIBBING        FAIR      34  24  67 CALM      30.44R
ALEXANDRIA     FAIR      42  25  50 SE3       30.46R
SAINT CLOUD    FAIR      38  30  73 CALM      30.48S
MINNEAPOLIS    PTSUNNY   36  28  73 CALM      30.51S
$$

  *****  WEATHER ACROSS SOUTH DAKOTA  *****

CITY           SKY/WX    TMP DP  RH WIND       PRES   REMARKS
SIOUX FALLS    PTSUNNY   36  24  62 SE9       30.43R
BROOKINGS      FAIR      35  25  66 SE9       30.43R
WATERTOWN      FAIR      35  26  69 S9        30.41R
HURON          FAIR      34  26  72 SE9       30.40R
SISSETON         N/A     36  29  75 E3        30.42R
ABERDEEN       FAIR      38  31  76 S9        30.41R
MITCHELL       FAIR      35  28  75 SE13      30.40S
PIERRE         FAIR      36  32  85 SE13      30.29S
MOBRIDGE       FAIR      40  30  67 SE10      30.29S
RAPID CITY     FAIR      43  31  62 SE14      30.15R
$$

  *****  SOME WEATHER IN NEARBY STATES *****

CITY           SKY/WX    TMP DP  RH WIND       PRES   REMARKS
GLASGOW MT     FAIR      42  33  70 E14       30.15S
GREAT FALLS MT FAIR      40  32  73 SW10      30.13R
CHEYENNE WY    PTSUNNY   34  26  72 SE12      29.97S
SCOTTSBLUFF NE FAIR      40  29  64 E16       30.08R
OMAHA NE       PTSUNNY   44  29  55 SE7       30.45R
DES MOINES IA  CLOUDY    42  27  55 SE9       30.49S
DAVENPORT IA   FAIR      44  28  53 E5        30.55R
CHICAGO IL     FAIR      46  25  43 N5        30.50R
EAU CLAIRE WI  FAIR      37  27  67 CALM      30.51R
LA CROSSE WI   FAIR      35  28  75 VRB3      30.53R
$$

  *****  SOME NATIONAL WEATHER *****

CITY           SKY/WX    TMP DP  RH WIND       PRES   REMARKS
LA GUARDIA NY  FAIR      42  24  49 NW18G26   30.15R
RALEIGH NC     FAIR      52  30  43 N8        30.35S
ATLANTA GA     FAIR      51  31  46 E17       30.35R
NEW ORLEANS LA PTSUNNY   57  44  62 NE12G21   30.27R
OKLAHOMA CITY  FAIR      48  33  56 SE18      30.29S
ALBUQUERQUE NM PTSUNNY   51  19  28 NW9       29.94R
SALT LAKE CITY PTSUNNY   56  35  45 VRB3G18   29.82R
LOS ANGELES CA MOCLDY    53  47  79 E8        30.12S
BOISE ID       FAIR      43  30  60 NW7       30.11R
SEATTLE WA     MOCLDY    44  38  79 SE8       30.26R
$$

*** WEATHER ACROSS MANITOBA...SASKATCHEWAN AND ONTARIO ***
                ***ONTARIO***

CITY           SKY/WX    TMP DP  RH WIND       PRES   REMARKS
GERALDTON      MOSUNNY   41  18  38 CALM      30.40R
THUNDER BAY    MOSUNNY   43  21  42 SW5       30.44R
SIOUX LOOKOUT  PTSUNNY   41  16  36 VRB2      30.40R
TORONTO        MOSUNNY   36  21  55 NW15      30.37R
BIG TROUT LK   SUNNY     37  25  60 S3        30.45S HAZE
PICKLE LAKE    MOSUNNY   43  18  36 NE3       30.39R
DRYDEN         SUNNY     43  16  33 SW6       30.39S
KENORA         PTSUNNY   43  23  45 VRB2      30.40R
$$
                *** MANITOBA***

CITY           SKY/WX    TMP DP  RH WIND       PRES   REMARKS
BRANDON        CLOUDY    36  32  87 SE5       30.36R
DAUPHIN        SUNNY     37  30  75 VRB2      30.35S
ISLAND LAKE    SUNNY     36  25  64 SE5       30.41S
PILOT MOUND      N/A     41  34  75 S6          N/A
THE PAS        MOSUNNY   34  23  64 S10       30.30S
THOMPSON       MOSUNNY   41  19  42 S3        30.29S
WINNIPEG       MOSUNNY   45  36  70 S6        30.38S
LYNN LAKE      SUNNY     41  25  52 S9G17     30.13F
CHURCHILL      PTSUNNY   39  27  60 SW15      30.20F
GILLAM         MOSUNNY   45  19  36 S13       30.33F
$$
                ***SASKATCHEWAN***

CITY           SKY/WX    TMP DP  RH WIND       PRES   REMARKS
ESTEVAN        PTSUNNY   36  32  87 E9        30.27R
KINDERSLEY     MOSUNNY   37  34  87 S8        30.05S
LLOYDMINSTER   PTSUNNY   39  34  81 S9        30.01R
PRINCE ALBERT  MOSUNNY   37  30  75 S9        30.19S
REGINA         MOSUNNY   36  32  87 SE15G22   30.22S
YORKTON        SUNNY     34  27  75 SE9       30.29S
N. BATTLEFORD  SUNNY     39  32  75 E13       30.09S
LA RONGE       PTSUNNY   41  30  65 S13G18    30.07F
SASKATOON      MOSUNNY   41  30  65 SE10      30.14F
SWIFT CURRENT  SUNNY     41  32  70 S16       30.09R
$$
NOTE: THESE ARE AUTOMATED STATIONS WITH LIMITED QUALITY CONTROL
      "FAIR" INDICATES FEW OR NO CLOUDS BELOW 12,000 FEET WITH NO
      SIGNIFICANT WEATHER AND/OR OBSTRUCTIONS TO VISIBILITY.
      SKY/WX - SKY CONDITION AND SIGNIFICANT WEATHER.
      TMP - AIR TEMPERATURE.    DP   - DEWPOINT TEMPERATURE.
      RH  - RELATIVE HUMIDITY.  PRES - PRESSURE.
      HX  - HEAT INDEX.         WCI  - WIND CHILL INDEX.
$




USA.gov is the U.S. government's official web portal to all federal, state and local government web resources and services.